Location: Newark
(34.6283°N, 36.0776°E)
Time: 07:54:24
(UTC+00:00)

A-11 Canister half - Pass Details

Date: 25 September 2019
Orbit: 1527 x 1682 km, 47.3° (Epoch: 13 October)

Event Time Altitude Azimuth Distance (km) Brightness Sun altitude
Rises 04:44:03 0° 300° (WNW) 4,739 11.0 15.2°
Reaches altitude 10° 04:47:17 10° 306° (NW) 3,774 10.6 15.9°
Maximum altitude 04:56:30 48° 19° (NNE) 2,020 9.9 17.7°
Drops below altitude 10° 05:05:59 10° 92° (E) 3,887 13.0 19.6°
Sets 05:09:22 0° 98° (E) 4,891 13.2 20.3°
